map of SEN home
SEN - Airport
Location
City:  Southend, Essex, England, United Kingdom
Name:London Southend Airport
ICAO:EGMC
IATA:SEN

Details
Type:Airport (Aerodrome, Airfield)
Use:Public/Civil, International (customs port of entry)
Latitude:5134'13"N (51.570278)
Longitude:041'36"E (0.693333)
Elevation:55 ft (17 m)
Variation:0.15E (WMM2015v2 magnetic declination)
0.19 annual change
Runways:1
Longest:6089 × 121 ft (1856 × 37 m), paved

Time
Time Zone:UTC+0 (DST+1)
Local Time:

Weather
METAR:EGMC 041350Z 21014KT 7000 -SHRA BKN010 07/05 Q1017

Related Locations
Nearby:
Farthest:CHT: 11878 mi / 19116 km
Waitangi [Tuuta], CIT, NZ

Find:

   beyond  
but within

Other Information
Maps:
NOTAMs:
Links:
Sources:

  
  • flag of United Kingdom
  • flag of England
  • flag of Essex
  

Airport Diagram

Airport diagram for SEN

Airport diagram PDF

Sectional Chart

Flight Planning
at skyvector.com

Satellite Image

Google Maps Satellite view

 

Copyright © 2004-2019 Karl L. Swartz. All rights reserved.
The Great Circle Mapper name and logo are trademarks of the Great Circle Mapper.
All other trademarks mentioned herein belong to their respective owners.
Please see credits for attibutions and further copyright information.

  Follow gcmap on Facebook Follow gcmap on Twitter GCmap on LinkedIn

hCard Microformat

Geo Microformat